NP2N ENBR-ENBR

Flight info

Callsign NP2N
Flight time 0h 14m
Altitude 1500
Route
Aircraft PC12

Departure

Time 2026-04-27 15:09
Airport Bergen Airport, Flesland (ENBR)

Arrival

Time 2026-04-27 15:24
Airport Bergen Airport, Flesland (ENBR)
Time Latitude Longitude Altitude Speed Heading
2026-04-27 15:01 60.28405 5.22689 142 ft 0 kts 96°
2026-04-27 15:03 60.28403 5.22693 142 ft 1 kts 147°
2026-04-27 15:03 60.28406 5.22625 143 ft 12 kts 279°
2026-04-27 15:03 60.28360 5.22585 142 ft 0 kts 168°
2026-04-27 15:04 60.28350 5.22590 142 ft 8 kts 170°
2026-04-27 15:05 60.28295 5.22493 142 ft 18 kts 253°
2026-04-27 15:05 60.28280 5.22338 141 ft 0 kts 262°
2026-04-27 15:07 60.28281 5.22267 141 ft 13 kts 273°
2026-04-27 15:08 60.28382 5.22139 143 ft 26 kts 348°
2026-04-27 15:08 60.28737 5.22014 146 ft 83 kts 350°
2026-04-27 15:08 60.29490 5.21767 211 ft 125 kts 349°
2026-04-27 15:08 60.30411 5.21430 435 ft 146 kts 349°
2026-04-27 15:09 60.31461 5.20954 748 ft 160 kts 336°
2026-04-27 15:09 60.32285 5.19392 968 ft 173 kts 299°
2026-04-27 15:09 60.32538 5.17002 1148 ft 177 kts 267°
2026-04-27 15:09 60.32108 5.14656 1228 ft 183 kts 230°
2026-04-27 15:10 60.31003 5.13468 1281 ft 189 kts 192°
2026-04-27 15:10 60.29761 5.13148 1311 ft 172 kts 184°
2026-04-27 15:10 60.28583 5.13296 1386 ft 168 kts 171°
2026-04-27 15:10 60.27463 5.13852 1520 ft 167 kts 164°
2026-04-27 15:11 60.26361 5.14563 1589 ft 169 kts 161°
2026-04-27 15:11 60.25243 5.15388 1549 ft 171 kts 159°
2026-04-27 15:11 60.24154 5.16292 1666 ft 167 kts 157°
2026-04-27 15:11 60.23429 5.17110 1664 ft 171 kts 140°
2026-04-27 15:12 60.22739 5.19105 1488 ft 177 kts 112°
2026-04-27 15:12 60.22624 5.21493 1329 ft 174 kts 75°
2026-04-27 15:12 60.23327 5.23317 1361 ft 159 kts 38°
2026-04-27 15:12 60.24243 5.24150 1127 ft 142 kts
2026-04-27 15:13 60.25186 5.23664 834 ft 139 kts 337°
2026-04-27 15:13 60.26072 5.22957 632 ft 136 kts 340°
2026-04-27 15:13 60.26996 5.22567 448 ft 133 kts 351°
2026-04-27 15:13 60.27902 5.22280 303 ft 134 kts 349°
2026-04-27 15:14 60.28804 5.21992 155 ft 124 kts 350°
2026-04-27 15:14 60.29453 5.21775 151 ft 87 kts 350°
2026-04-27 15:14 60.30201 5.21510 272 ft 123 kts 348°
2026-04-27 15:14 60.31099 5.21125 560 ft 140 kts 345°
2026-04-27 15:15 60.32054 5.20481 861 ft 150 kts 333°
2026-04-27 15:15 60.32844 5.19019 997 ft 163 kts 302°
2026-04-27 15:15 60.33214 5.16769 998 ft 173 kts 272°
2026-04-27 15:15 60.32921 5.14403 918 ft 180 kts 235°
2026-04-27 15:16 60.31817 5.13424 1168 ft 187 kts 181°
2026-04-27 15:16 60.30460 5.13433 1247 ft 197 kts 179°
2026-04-27 15:16 60.29126 5.13585 1346 ft 194 kts 176°
2026-04-27 15:16 60.27758 5.13813 1293 ft 202 kts 175°
2026-04-27 15:17 60.26360 5.14197 1434 ft 200 kts 171°
2026-04-27 15:17 60.25015 5.14643 1678 ft 195 kts 171°
2026-04-27 15:17 60.23675 5.15173 1727 ft 200 kts 161°
2026-04-27 15:17 60.22571 5.16869 1770 ft 200 kts 126°
2026-04-27 15:18 60.22031 5.19399 1921 ft 200 kts 100°
2026-04-27 15:18 60.22267 5.22118 1963 ft 203 kts 57°
2026-04-27 15:18 60.23389 5.23782 1771 ft 203 kts 19°
2026-04-27 15:18 60.24720 5.23774 1284 ft 187 kts 342°
2026-04-27 15:19 60.25808 5.23044 887 ft 142 kts 342°
2026-04-27 15:19 60.26664 5.22634 516 ft 121 kts 351°
2026-04-27 15:19 60.27489 5.22393 309 ft 119 kts 351°
2026-04-27 15:19 60.28293 5.22158 169 ft 115 kts 350°
2026-04-27 15:20 60.29046 5.21914 148 ft 101 kts 350°
2026-04-27 15:20 60.29680 5.21695 158 ft 110 kts 349°
2026-04-27 15:20 60.30525 5.21410 395 ft 136 kts 349°
2026-04-27 15:20 60.31495 5.20956 838 ft 152 kts 338°
2026-04-27 15:21 60.32317 5.19480 1418 ft 172 kts 298°
2026-04-27 15:21 60.32551 5.17865 1503 ft 189 kts 274°
2026-04-27 15:21 60.32001 5.15546 1593 ft 201 kts 210°
2026-04-27 15:21 60.30653 5.15219 1598 ft 194 kts 169°
2026-04-27 15:22 60.29363 5.15822 1582 ft 187 kts 167°
2026-04-27 15:22 60.28098 5.16439 1672 ft 187 kts 166°
2026-04-27 15:22 60.26937 5.17218 1538 ft 170 kts 148°
2026-04-27 15:22 60.26278 5.19032 1252 ft 153 kts 106°
2026-04-27 15:23 60.26259 5.21029 1075 ft 136 kts 78°
2026-04-27 15:23 60.26736 5.22389 748 ft 114 kts 24°
2026-04-27 15:23 60.27515 5.22472 248 ft 113 kts 347°
2026-04-27 15:23 60.28167 5.22198 139 ft 60 kts 352°
2026-04-27 15:24 60.28284 5.22164 142 ft 0 kts 12°
2026-04-27 15:24 60.28291 5.22163 143 ft 0 kts 352°
2026-04-27 15:25 60.28295 5.22172 143 ft 4 kts 94°
2026-04-27 15:25 60.28283 5.22370 142 ft 13 kts 81°
2026-04-27 15:25 60.28284 5.22385 142 ft 0 kts 81°
2026-04-27 15:26 60.28286 5.22414 142 ft 9 kts 80°
2026-04-27 15:26 60.28319 5.22588 142 ft 10 kts 39°
2026-04-27 15:26 60.28323 5.22702 142 ft 4 kts 130°